EA7KZ-10 Weather Reports


time (UTC)temp
C
wind
direction
speed
KPH
gust
KPH
rain 1hr
cm
rain 24hr
cm
rain mn
cm
humidity
%
barometer
mb
20260508095442 19 0.0 0.0 0.00 0.00 0.00 50 1012.1
20260508094442 19 0.0 0.0 0.00 0.00 0.00 50 1011.9
20260508093441 19 0.0 0.0 0.00 0.00 0.00 49 1011.9
20260508092442 19 0.0 0.0 0.00 0.00 0.00 47 1012.1
20260508091441 19 0.0 0.0 0.00 0.00 0.00 48 1012.0
20260508090442 19 0.0 0.0 0.00 0.00 0.00 48 1012.0
20260508085442 19 0.0 0.0 0.00 0.00 0.00 47 1011.7
20260508084442 19 0.0 0.0 0.00 0.00 0.00 48 1011.7
20260508083441 19 0.0 0.0 0.00 0.00 0.00 48 1011.7
20260508082442 18 0.0 0.0 0.00 0.00 0.00 49 1011.8
20260508081442 18 0.0 0.0 0.00 0.00 0.00 49 1011.7
20260508075442 18 0.0 0.0 0.00 0.00 0.00 51 1011.8
20260508074442 18 0.0 0.0 0.00 0.00 0.00 51 1012.0
20260508073441 18 0.0 0.0 0.00 0.00 0.00 52 1012.2
20260508072441 17 0.0 0.0 0.00 0.00 0.00 52 1012.2
20260508071442 17 0.0 0.0 0.00 0.00 0.00 53 1012.3
20260508070442 17 0.0 0.0 0.00 0.00 0.00 54 1012.4
20260508065441 16 0.0 0.0 0.00 0.00 0.00 57 1012.5
20260508064441 16 0.0 0.0 0.00 0.00 0.00 59 1012.5
20260508063441 15 0.0 0.0 0.00 0.00 0.00 60 1012.3
20260508062442 15 0.0 0.0 0.00 0.00 0.00 60 1012.3
20260508060441 15 0.0 0.0 0.00 0.00 0.00 60 1012.3
20260508055441 15 0.0 0.0 0.00 0.00 0.00 60 1012.4
20260508054441 15 0.0 0.0 0.00 0.00 0.00 59 1012.4
20260508053441 15 0.0 0.0 0.00 0.00 0.00 58 1012.5
20260508052442 15 0.0 0.0 0.00 0.00 0.00 58 1012.2
20260508051442 15 0.0 0.0 0.00 0.00 0.00 57 1012.2
20260508050442 15 0.0 0.0 0.00 0.00 0.00 58 1012.2
20260508045442 15 0.0 0.0 0.00 0.00 0.00 61 1012.1
20260508044441 15 0.0 0.0 0.00 0.00 0.00 62 1012.0
20260508043442 15 0.0 0.0 0.00 0.00 0.00 62 1012.3
20260508042441 15 0.0 0.0 0.00 0.00 0.00 61 1012.3
20260508041441 15 0.0 0.0 0.00 0.00 0.00 61 1012.1
20260508040441 15 0.0 0.0 0.00 0.00 0.00 62 1012.3
20260508035441 15 0.0 0.0 0.00 0.00 0.00 62 1012.5
20260508034441 15 0.0 0.0 0.00 0.00 0.00 61 1012.2
20260508033441 15 0.0 0.0 0.00 0.00 0.00 61 1012.3
20260508032441 15 0.0 0.0 0.00 0.00 0.00 61 1012.1
20260508031441 15 0.0 0.0 0.00 0.00 0.00 61 1012.1
20260508030441 15 0.0 0.0 0.00 0.00 0.00 61 1012.0
20260508025441 15 0.0 0.0 0.00 0.00 0.00 61 1012.0
20260508024442 15 0.0 0.0 0.00 0.00 0.00 60 1012.1
20260508023441 15 0.0 0.0 0.00 0.00 0.00 61 1011.9
20260508022441 16 0.0 0.0 0.00 0.00 0.00 60 1011.8
20260508021441 16 0.0 0.0 0.00 0.00 0.00 60 1011.7
20260508020441 16 0.0 0.0 0.00 0.00 0.00 60 1011.6
20260508015442 16 0.0 0.0 0.00 0.00 0.00 60 1011.5
20260508014441 16 0.0 0.0 0.00 0.00 0.00 60 1011.4
20260508013441 16 0.0 0.0 0.00 0.00 0.00 60 1011.4
20260508012441 16 0.0 0.0 0.00 0.00 0.00 61 1011.3
20260508011441 16 0.0 0.0 0.00 0.00 0.00 60 1011.7
20260508010441 16 0.0 0.0 0.00 0.00 0.00 60 1012.1
20260508005441 16 0.0 0.0 0.00 0.00 0.00 60 1012.2
20260508004441 16 0.0 0.0 0.00 0.00 0.00 60 1012.4
20260508003441 16 0.0 0.0 0.00 0.00 0.00 60 1012.4
20260508002441 16 0.0 0.0 0.00 0.00 0.00 60 1012.7
20260508001442 16 0.0 0.0 0.00 0.00 0.00 59 1012.7
20260508000442 16 0.0 0.0 0.00 0.00 0.00 60 1012.9
20260507235441 16 0.0 0.0 0.00 0.00 0.00 59 1012.7
20260507234441 16 0.0 0.0 0.00 0.00 0.00 58 1012.7
20260507233441 17 0.0 0.0 0.00 0.00 0.00 58 1012.5
20260507232441 17 0.0 0.0 0.00 0.00 0.00 58 1012.6
20260507231441 17 0.0 0.0 0.00 0.00 0.00 58 1012.6
20260507230441 17 0.0 0.0 0.00 0.00 0.00 58 1012.5
20260507225441 17 0.0 0.0 0.00 0.00 0.00 57 1012.6
20260507224441 17 0.0 0.0 0.00 0.00 0.00 57 1012.7
20260507223441 17 0.0 0.0 0.00 0.00 0.00 56 1012.9
20260507222441 17 0.0 0.0 0.00 0.00 0.00 55 1012.8
20260507221441 17 0.0 0.0 0.00 0.00 0.00 55 1012.9
20260507220441 17 0.0 0.0 0.00 0.00 0.00 55 1013.0
20260507215441 17 0.0 0.0 0.00 0.00 0.00 53 1013.0
20260507214441 17 0.0 0.0 0.00 0.00 0.00 52 1013.0
20260507213441 17 0.0 0.0 0.00 0.00 0.00 51 1012.9
20260507212441 17 0.0 0.0 0.00 0.00 0.00 51 1012.8
20260507211442 17 0.0 0.0 0.00 0.00 0.00 53 1012.7
20260507210441 17 0.0 0.0 0.00 0.00 0.00 54 1012.8
20260507205441 17 0.0 0.0 0.00 0.00 0.00 54 1012.6
20260507204441 17 0.0 0.0 0.00 0.00 0.00 53 1012.4
20260507203441 17 0.0 0.0 0.00 0.00 0.00 55 1012.2
20260507202441 17 0.0 0.0 0.00 0.00 0.00 58 1012.1
20260507201441 17 0.0 0.0 0.00 0.00 0.00 59 1012.1
20260507200441 17 0.0 0.0 0.00 0.00 0.00 59 1012.0
20260507195441 17 0.0 0.0 0.00 0.00 0.00 58 1011.6
20260507194441 17 0.0 0.0 0.00 0.00 0.00 58 1011.6
20260507193442 17 0.0 0.0 0.00 0.00 0.00 59 1011.4
20260507192441 17 0.0 0.0 0.00 0.00 0.00 58 1011.2
20260507191441 17 0.0 0.0 0.00 0.00 0.00 57 1011.0
20260507190441 17 0.0 0.0 0.00 0.00 0.00 58 1010.8
20260507185441 18 0.0 0.0 0.00 0.00 0.00 58 1010.7
20260507184441 18 0.0 0.0 0.00 0.00 0.00 58 1010.5
20260507183441 18 0.0 0.0 0.00 0.00 0.00 56 1010.4
20260507182441 18 0.0 0.0 0.00 0.00 0.00 54 1010.3
20260507181441 18 0.0 0.0 0.00 0.00 0.00 55 1010.1
20260507180441 18 0.0 0.0 0.00 0.00 0.00 56 1009.9
20260507175441 18 0.0 0.0 0.00 0.00 0.00 56 1009.7
20260507174441 18 0.0 0.0 0.00 0.00 0.00 57 1009.7
20260507173441 18 0.0 0.0 0.00 0.00 0.00 53 1009.8
20260507172441 18 0.0 0.0 0.00 0.00 0.00 52 1009.8
20260507171441 18 0.0 0.0 0.00 0.00 0.00 50 1009.8
20260507170441 18 0.0 0.0 0.00 0.00 0.00 49 1009.8
20260507165441 19 0.0 0.0 0.00 0.00 0.00 50 1009.4
20260507164441 19 0.0 0.0 0.00 0.00 0.00 50 1009.1
20260507163441 19 0.0 0.0 0.00 0.00 0.00 54 1009.1
20260507162441 19 0.0 0.0 0.00 0.00 0.00 54 1009.0
20260507161441 19 0.0 0.0 0.00 0.00 0.00 50 1009.0
20260507160441 19 0.0 0.0 0.00 0.00 0.00 47 1008.9
20260507155441 19 0.0 0.0 0.00 0.00 0.00 50 1008.8
20260507154441 19 0.0 0.0 0.00 0.00 0.00 47 1008.9
20260507153441 19 0.0 0.0 0.00 0.00 0.00 47 1008.9
20260507152441 19 0.0 0.0 0.00 0.00 0.00 49 1009.0
20260507151441 19 0.0 0.0 0.00 0.00 0.00 47 1009.1
20260507150441 19 0.0 0.0 0.00 0.00 0.00 50 1009.2
20260507145441 19 0.0 0.0 0.00 0.00 0.00 51 1009.3
20260507144441 18 0.0 0.0 0.00 0.00 0.00 52 1009.6
20260507143441 18 0.0 0.0 0.00 0.00 0.00 51 1009.7
20260507142441 18 0.0 0.0 0.00 0.00 0.00 52 1009.8
20260507141441 18 0.0 0.0 0.00 0.00 0.00 50 1010.2
20260507140441 18 0.0 0.0 0.00 0.00 0.00 52 1010.5
20260507135441 18 0.0 0.0 0.00 0.00 0.00 50 1010.4
20260507134441 18 0.0 0.0 0.00 0.00 0.00 55 1010.7
20260507133441 17 0.0 0.0 0.00 0.00 0.00 53 1011.1
20260507132441 17 0.0 0.0 0.00 0.00 0.00 51 1011.4
20260507130000 19 0.0 0.0 0.00 0.00 0.00 43 1010.2
20260507125000 20 0.0 0.0 0.00 0.00 0.00 40 1009.9
20260507124000 20 0.0 0.0 0.00 0.00 0.00 41 1009.8
20260507123001 19 0.0 0.0 0.00 0.00 0.00 41 1010.0
20260507122001 19 0.0 0.0 0.00 0.00 0.00 42 1010.1
20260507121001 19 0.0 0.0 0.00 0.00 0.00 42 1010.2
20260507120000 19 0.0 0.0 0.00 0.00 0.00 42 1010.3
20260507115000 19 0.0 0.0 0.00 0.00 0.00 43 1010.5
20260507114000 19 0.0 0.0 0.00 0.00 0.00 43 1010.6
20260507113000 19 0.0 0.0 0.00 0.00 0.00 43 1010.6
20260507112000 19 0.0 0.0 0.00 0.00 0.00 43 1010.8
20260507111001 19 0.0 0.0 0.00 0.00 0.00 43 1010.9
20260507110001 19 0.0 0.0 0.00 0.00 0.00 43 1011.0
20260507105000 19 0.0 0.0 0.00 0.00 0.00 44 1010.9
20260507104000 19 0.0 0.0 0.00 0.00 0.00 43 1011.0
20260507103000 19 0.0 0.0 0.00 0.00 0.00 44 1010.8
20260507102001 19 0.0 0.0 0.00 0.00 0.00 44 1010.9